Regional Weather Roundup
Issued by NWS San Diego, CA

Home | Current Version | Previous Version | Text Only | Print | Product List | Glossary On
Versions: 1 2 3 4 5 6 7 8 9 10 11 12 13 14 15 16 17 18 19 20 21 22 23 24 25 26 27 28 29 30 31 32 33 34 35 36 37 38 39 40 41 42 43 44 45 46 47 48 49 50
000
ASUS46 KSGX 281711
RWRSGX

SAN DIEGO HOURLY WEATHER ROUNDUP
NATIONAL WEATHER SERVICE SAN DIEGO CA
1000 AM PDT THU MAY 28 2015

NOTE: "FAIR" INDICATES FEW OR NO CLOUDS BELOW 12,000 FEET WITH NO
SIGNIFICANT WEATHER AND/OR OBSTRUCTIONS TO VISIBILITY.

CAZ042-043-060-061-PZZ750-775-281800-

GREATER SAN DIEGO AREA

CITY           SKY/WX    TMP DP  RH WIND       PRES   REMARKS
LINDBERGH FLD  CLOUDY    64  56  75 NW6       30.02S
POINT LOMA       N/A     62  56  82 NW10        N/A
NATIONAL CITY    N/A     64  58  80 CALM      30.01S
CHULA VISTA      N/A     63  59  85 CALM      29.94S
IMPERIAL BEACH CLOUDY    64  57  78 W7        30.01S
BROWN FIELD    CLOUDY    63  56  78 N5        30.00S
MIRAMAR MCAS   CLOUDY    65  55  70 NW3       30.01R
MONTGOMERY FLD CLOUDY    62  56  80 NW6       30.01S

$$

NORTH SAN DIEGO COUNTY

CITY           SKY/WX    TMP DP  RH WIND       PRES   REMARKS
CAMP PENDLETON CLOUDY    62  54  74 CALM      30.00S
OCEANSIDE AP   CLOUDY    64  55  72 CALM      29.99S
OCEANSIDE HBR    N/A     63  58  83 SW3       30.03S
VISTA            N/A     62  56  82 CALM      29.99S
CARLSBAD       CLOUDY    62  55  77 CALM      30.00R
DEL MAR          N/A     62  58  85 CALM      30.03R
LA JOLLA SCRIP   N/A    N/A N/A N/A W3        29.99R
FALLBROOK        N/A     60  60  97 CALM      30.01S
ESCONDIDO        N/A     61  58  88 W2        30.02S
SAN MARCOS       N/A     61  56  85 CALM      29.99S
POWAY            N/A     62  56  82 SW2       30.02S

$$

EAST SAN DIEGO COUNTY

CITY           SKY/WX    TMP DP  RH WIND       PRES   REMARKS
RAMONA         CLOUDY    58  54  86 NW3       30.01S
SANTEE LAKES     N/A     62  57  83 CALM      30.00S
LA MESA          N/A     61  56  84 CALM      29.95R
JAMUL            N/A     60  56  88 CALM      30.00R
DESCANSO N       N/A     73  51  46 CALM      29.86S
MT. LAGUNA OBS   N/A     67  38  35 CALM      29.73R
CAMPO            N/A     74  43  32 SW9       29.96

$$

ORANGE COUNTY AND THE LOS ANGELES BASIN

CITY           SKY/WX    TMP DP  RH WIND       PRES   REMARKS
JOHN WAYNE AP  CLOUDY    63  53  70 W3        30.01R
LAKE FOREST FR   N/A     62  54  75 CALM      29.91S
SANTA ANA        N/A     65  58  78 CALM      29.96R
HUNTINGTON BCH   N/A     63  57  82 SW3       30.02S
LOS ALAMITOS   CLOUDY    63  55  76 S1        30.01R
FULLERTON      CLOUDY    65  53  65 W3        30.00R
LONG BEACH     CLOUDY    64  55  72 CALM      30.01R
L.A. AP        CLOUDY    62  55  77 CALM      30.01S
L.A. DOWNTOWN  CLOUDY    63  55  75 CALM      30.00S HAZE

$$

THE INLAND EMPIRE

CITY           SKY/WX    TMP DP  RH WIND       PRES   REMARKS
CORONA         SUNNY     64  55  72 CALM      30.01S HAZE
CHINO          MOSUNNY   65  55  70 CALM      30.01F HAZE
ONTARIO        PTSUNNY   63  53  70 S5        30.00S HAZE
SAN BERNARDINO PTSUNNY   64  52  63 W3        30.00F HAZE
RIVERSIDE AP   MOSUNNY   64  54  69 VRB3      30.00F HAZE
RIV CYN CREST    N/A     62  62  99 W5          N/A
MORENO VALLEY    N/A     68  60  75 SE2       29.98F
MARCH ARB      SUNNY     65  55  69 VRB2      29.99F
HORSETHIEF CYN   N/A     68  54  61 CALM      29.95F
PERRIS           N/A     64  59  85 W2          N/A
MENIFEE          N/A     64  58  81 S1        30.06F
HEMET EAST       N/A     63  51  66 CALM      29.95S
FRENCH VALLEY  PTSUNNY   61  54  77 E3        30.01S
TEMECULA         N/A     62  58  87 SW1       29.96F

$$

SAN BERNARDINO AND RIVERSIDE COUNTY MOUNTAINS

CITY           SKY/WX    TMP DP  RH WIND       PRES   REMARKS
BIG BEAR AP    SUNNY     66  12  12 CALM      30.21S
ANGELUS OAKS     N/A     68  36  30 CALM      29.87S
PINE COVE        N/A     67  35  30 W1        29.92S

$$

SOUTHERN DESERT INCLUDING THE COACHELLA VALLEY

CITY           SKY/WX    TMP DP  RH WIND       PRES   REMARKS
PALM SPRINGS   SUNNY     86  46  24 VRB3      29.91S
PALM DESERT      N/A     87  51  28 CALM        N/A
THERMAL        SUNNY     86  50  28 VRB5      29.87S
BLYTHE         SUNNY     87  39  18 MISG      29.90S
IMPERIAL AP    SUNNY     83  55  38 CALM      29.88R
EL CENTRO NAS  MOSUNNY   84  54  35 CALM      29.89S
YUMA AZ        MOSUNNY   85  38  18 S6        29.90S
MEXICALI       SUNNY     81  57  44 S6        29.90R

$$

UPPER DESERT

CITY           SKY/WX    TMP DP  RH WIND       PRES   REMARKS
VICTORVILLE AP SUNNY     77  36  22 CALM      30.01F
HESPERIA         N/A     77  40  27 CALM      30.03F
APPLE VALLEY     N/A     77  37  24 CALM      30.04S
PALMDALE       SUNNY     79  35  20 N5        30.00F
LANCASTER      SUNNY     81  35  19 CALM      29.99S
EDWARDS AFB    PTSUNNY   79  39  23 SE5       29.97S
DAGGETT        SUNNY     83  37  19 NW14      29.96S
29 PALMS N     MOSUNNY   81  37  20 N3        30.03F
NEEDLES        SUNNY     89  32  13 VRB5      29.92S

$$

REGIONAL REPORTS

CITY           SKY/WX    TMP DP  RH WIND       PRES   REMARKS
SANTA BARBARA  MOSUNNY   61  55  81 S12       30.00S
SANDBERG       SUNNY     72  33  24 N9G16     30.10S
LAS VEGAS NV   SUNNY     83  30  14 VRB3      29.93F
PHOENIX AZ     SUNNY     86  36  16 VRB5      29.93S
TIJUANA        CLOUDY    61  52  72 N7        30.08R FOG
ENSENADA NW      N/A     61  32  33 W10       29.98S

$$

OFFSHORE ISLANDS

CITY           SKY/WX    TMP DP  RH WIND       PRES   REMARKS
CATALINA ARPT  CLOUDY    59  54  83 W5        30.02S
SAN CLEMENTE I CLOUDY    61  51  70 W9        30.04R
SAN NICOLAS IS CLOUDY    61  44  53 W12       30.01S

$$

MARINE AND OFFSHORE BUOY REPORTS

STATION/POSITION SKY/WX   TEMP    WIND        PRES    SWELL
                          AIR SEA DIR/SP/G            HT/PER/DIR
                          (F)     (DEG/KT/KT) (MB)    (FT/S/D)
TANNER BANKS               58 60  320/ 14/ 16 1016.9R   5/250/14
S CLEMENTE BASIN           59 63  310/  4/  6 1016.5R   5/240/16
SAN NICOLAS IS.               60                N/A     3/230/13
SO. S. ROSA ISLA           55 59  330/ 17/ 21 1015.7F   3/16
W. S. BARBARA CH           54 55  330/ 19/ 21 1015.8R   3/230/16
M. S. BARBARA CH           57 59   60/  4/  6 1016.4R
S. MONICA BASIN            58 62  150/  2/  4 1016.3S   3/220/17
S PEDRO CHANNEL               62                N/A     2/170/15
DANA POINT                    62                N/A     2/240/15
OCEANSIDE OFFSHR              65                N/A     3/210/14
TORREY PINES OTR              65                N/A     3/220/17
LA JOLLA 1                 62 65  320/  6/  9 1015.9R
MISSION BAY BUOY              65                N/A     3/230/17
SAN DIEGO BAY                 65              1016.3R
POINT LOMA SOUTH              64                N/A     3/220/17

$$




USA.gov is the U.S. government's official web portal to all federal, state and local government web resources and services.